�N����,����,�~����,�C��,���x,�C��,����,���ϕ���,�ő�u�ԕ���,�ő厞����,���˗�,�I�_���x,�n�����x,�ő啗���N��,DTYPE
"19/03/23","00:10",0.0,6.7,61.3,1010.7,295.4,2.1,3.3,311.6,0.00,-0.2,9.7,"00:07:20",1
"19/03/23","00:20",0.0,6.7,61.6,1010.2,320.9,3.1,6.3,321.5,0.00,-0.1,10.0,"00:10:40",1
"19/03/23","00:30",0.0,6.7,62.3,1010.2,325.7,3.4,6.3,335.3,0.00,0.0,9.7,"00:28:32",1
"19/03/23","00:40",0.0,6.7,62.8,1010.0,326.6,2.6,4.3,336.2,0.00,0.2,9.7,"00:36:16",1
"19/03/23","00:50",0.0,6.6,63.7,1010.0,324.0,2.2,3.6,334.4,0.00,0.3,9.8,"00:47:20",1
"19/03/23","01:00",0.0,6.7,63.7,1010.2,311.5,2.8,5.6,340.7,0.00,0.4,9.7,"00:59:12",1
"19/03/23","01:10",0.0,6.7,63.9,1010.2,322.3,3.1,5.9,332.0,0.00,0.4,9.8,"01:08:24",1
"19/03/23","01:20",0.0,6.7,64.2,1010.4,336.1,2.3,5.0,333.1,0.00,0.5,9.7,"01:19:36",1
"19/03/23","01:30",0.0,6.7,64.3,1010.0,333.7,1.8,4.0,321.0,0.00,0.5,9.6,"01:25:20",1
"19/03/23","01:40",0.0,6.7,63.1,1010.2,339.9,1.8,4.9,336.3,0.00,0.2,9.5,"01:34:48",1
"19/03/23","01:50",0.0,6.7,63.0,1010.4,328.8,3.0,5.4,330.3,0.00,0.2,9.8,"01:42:00",1
"19/03/23","02:00",0.0,6.7,62.5,1010.2,330.8,2.5,5.6,333.6,0.00,0.1,9.6,"01:57:44",1
"19/03/23","02:10",0.0,6.6,62.5,1010.4,313.3,2.0,3.3,314.9,0.00,0.0,9.6,"02:09:36",1
"19/03/23","02:20",0.0,6.4,62.9,1010.2,298.7,2.0,4.1,334.4,0.00,-0.1,9.4,"02:15:20",1
"19/03/23","02:30",0.0,6.4,62.5,1010.0,328.8,1.6,3.3,329.4,0.00,-0.2,9.7,"02:24:00",1
"19/03/23","02:40",0.0,6.5,61.4,1010.2,314.4,2.6,5.1,303.5,0.00,-0.3,9.6,"02:36:32",1
"19/03/23","02:50",0.0,6.4,61.6,1010.0,321.1,1.5,3.6,331.4,0.00,-0.4,9.5,"02:40:08",1
"19/03/23","03:00",0.0,6.2,64.5,1010.0,314.5,1.8,3.5,326.1,0.00,0.1,9.5,"02:59:28",1
"19/03/23","03:10",0.0,6.0,65.1,1010.0,300.6,1.2,2.8,336.7,0.00,0.0,9.8,"03:00:08",1
"19/03/23","03:20",0.0,6.2,62.6,1010.0,303.3,1.2,2.7,331.4,0.00,-0.4,9.5,"03:17:28",1
"19/03/23","03:30",0.0,6.2,61.7,1010.2,309.2,1.6,2.8,329.4,0.00,-0.6,9.4,"03:21:20",1
"19/03/23","03:40",0.0,6.1,61.6,1010.0,275.9,1.5,2.7,310.2,0.00,-0.7,9.6,"03:33:04",1
"19/03/23","03:50",0.0,6.1,62.3,1009.7,313.5,1.8,2.7,330.3,0.00,-0.5,9.3,"03:42:40",1
"19/03/23","04:00",0.0,5.7,66.4,1009.5,320.0,2.2,3.5,315.9,0.00,0.0,9.4,"03:52:48",1
"19/03/23","04:10",0.0,5.6,68.2,1009.7,287.3,1.6,2.5,266.2,0.00,0.2,9.3,"04:07:04",1
"19/03/23","04:20",0.0,5.8,66.2,1009.5,308.5,2.3,5.2,320.3,0.00,0.0,9.3,"04:12:48",1
"19/03/23","04:30",0.0,5.6,67.8,1009.3,280.0,1.5,2.7,310.0,0.00,0.2,9.3,"04:28:08",1
"19/03/23","04:40",0.0,5.6,69.3,1009.7,297.0,2.1,3.4,270.4,0.00,0.5,9.5,"04:33:04",1
"19/03/23","04:50",0.0,5.5,70.0,1010.0,306.0,2.1,3.5,329.4,0.00,0.5,9.3,"04:47:52",1
"19/03/23","05:00",0.0,5.7,68.3,1009.7,320.7,1.8,3.3,314.1,0.00,0.4,9.4,"04:50:32",1
"19/03/23","05:10",0.0,5.7,68.0,1009.7,295.2,2.0,2.9,332.7,0.00,0.3,9.3,"05:01:20",1
"19/03/23","05:20",0.0,5.7,67.6,1010.0,306.2,1.8,3.6,331.2,0.00,0.2,9.3,"05:17:04",1
"19/03/23","05:30",0.0,5.7,65.4,1009.7,322.7,1.8,3.3,326.3,0.00,-0.2,9.3,"05:29:04",1
"19/03/23","05:40",0.0,4.9,69.5,1010.0,314.1,2.1,3.1,323.7,0.00,-0.2,9.4,"05:30:56",1
"19/03/23","05:50",0.0,4.5,73.1,1010.0,303.7,1.7,3.1,330.5,0.00,0.1,9.2,"05:40:16",1
"19/03/23","06:00",0.0,4.4,74.2,1010.2,313.7,1.6,2.6,332.5,0.00,0.3,9.0,"05:58:56",1
"19/03/23","06:10",0.0,4.2,75.5,1010.2,296.1,1.6,2.1,317.1,0.00,0.3,9.2,"06:00:08",1
"19/03/23","06:20",0.0,4.0,76.3,1010.0,300.8,1.6,2.2,318.8,0.00,0.3,9.1,"06:15:04",1
"19/03/23","06:30",0.0,4.3,76.8,1009.3,310.3,2.2,3.3,327.7,0.00,0.6,9.1,"06:26:00",1
"19/03/23","06:40",0.0,4.6,76.8,1010.0,316.2,2.0,2.9,316.4,0.00,0.9,9.0,"06:31:28",1
"19/03/23","06:50",0.0,4.7,76.5,1010.4,287.3,1.7,2.2,308.5,0.00,1.0,9.0,"06:48:24",1
"19/03/23","07:00",0.0,4.7,76.9,1010.2,317.4,2.1,3.3,320.8,0.00,1.0,9.1,"06:59:04",1
"19/03/23","07:10",0.0,4.8,76.8,1010.2,297.4,1.8,2.8,312.7,0.00,1.1,9.0,"07:01:04",1
"19/03/23","07:20",0.0,5.1,76.4,1010.2,315.9,2.3,3.1,321.2,0.00,1.3,9.1,"07:13:28",1
"19/03/23","07:30",0.0,5.2,76.3,1010.7,302.7,2.3,3.1,298.6,0.00,1.4,8.9,"07:25:12",1
"19/03/23","07:40",0.0,5.3,75.8,1010.4,319.7,2.7,4.0,333.2,0.00,1.4,8.9,"07:34:56",1
"19/03/23","07:50",0.0,5.4,75.6,1010.9,314.6,2.8,3.7,319.9,0.00,1.5,8.8,"07:43:12",1
"19/03/23","08:00",0.0,5.7,75.1,1010.9,311.2,2.5,3.3,311.6,0.02,1.7,9.1,"07:59:20",1
"19/03/23","08:10",0.0,6.9,73.0,1010.9,303.2,2.1,3.1,308.1,0.15,2.4,9.2,"08:01:04",1
"19/03/23","08:20",0.0,6.9,69.0,1010.9,290.6,2.0,2.8,331.2,0.13,1.7,8.8,"08:18:16",1
"19/03/23","08:30",0.0,7.0,66.6,1010.9,288.5,1.5,2.9,325.1,0.09,1.3,9.2,"08:20:08",1
"19/03/23","08:40",0.0,7.1,64.4,1010.7,262.8,1.1,2.1,228.5,0.09,0.9,9.2,"08:35:44",1
"19/03/23","08:50",0.0,7.2,63.1,1011.2,248.4,0.8,2.0,282.9,0.12,0.7,9.3,"08:47:44",1
"19/03/23","09:00",0.0,7.2,62.3,1011.6,255.1,1.1,2.4,246.0,0.10,0.5,9.5,"08:54:16",1
"19/03/23","09:10",0.0,7.4,61.5,1010.9,309.5,2.1,5.0,344.8,0.12,0.5,9.4,"09:08:48",1
"19/03/23","09:20",0.0,8.0,56.4,1011.4,336.6,2.2,4.1,358.3,0.17,-0.1,9.3,"09:19:52",1
"19/03/23","09:30",0.0,8.2,55.9,1011.2,345.3,2.1,5.0,337.6,0.19,0.0,9.7,"09:22:24",1
"19/03/23","09:40",0.0,8.3,52.9,1011.2,339.0,3.4,6.6,337.7,0.22,-0.7,9.6,"09:32:08",1
"19/03/23","09:50",0.0,8.9,53.2,1011.2,351.1,2.2,8.5,351.6,0.24,-0.1,9.7,"09:49:44",1
"19/03/23","10:00",0.0,8.5,52.0,1011.2,335.9,3.7,6.7,335.2,0.21,-0.7,9.8,"09:50:40",1
"19/03/23","10:10",0.0,8.6,53.2,1011.4,328.3,3.5,5.8,334.4,0.21,-0.3,9.7,"10:08:56",1
"19/03/23","10:20",0.0,9.0,53.2,1011.2,320.3,3.7,6.3,337.8,0.22,0.0,10.1,"10:18:48",1
"19/03/23","10:30",0.0,8.6,51.3,1011.2,322.6,3.9,5.9,336.9,0.18,-0.8,10.0,"10:24:08",1
"19/03/23","10:40",0.0,8.3,51.2,1011.2,324.2,4.7,8.1,338.1,0.18,-1.1,10.0,"10:38:00",1
"19/03/23","10:50",0.0,8.3,51.9,1010.9,320.6,4.1,6.2,333.8,0.20,-1.0,10.0,"10:41:04",1
"19/03/23","11:00",0.0,8.8,50.7,1010.9,310.5,3.9,7.1,334.7,0.24,-0.8,10.1,"10:52:00",1
"19/03/23","11:10",0.0,8.9,52.3,1010.9,310.2,3.1,7.2,315.9,0.23,-0.3,10.1,"11:02:48",1
"19/03/23","11:20",0.0,9.2,47.0,1010.4,315.5,2.8,7.3,304.3,0.34,-1.5,10.0,"11:12:24",1
"19/03/23","11:30",0.0,9.9,49.1,1010.9,337.5,2.3,5.1,338.6,0.43,-0.2,10.4,"11:27:52",1
"19/03/23","11:40",0.0,9.3,48.5,1010.9,344.1,3.1,6.6,338.4,0.41,-1.0,10.5,"11:33:36",1
"19/03/23","11:50",0.0,9.9,48.8,1010.9,346.8,3.0,7.4,346.5,0.51,-0.3,10.7,"11:40:02",1
"19/03/23","12:00",0.0,10.1,49.2,1010.7,319.5,3.5,6.2,338.7,0.65,0.0,10.7,"11:54:40",1
"19/03/23","12:10",0.0,9.8,48.7,1010.9,0.9,2.5,6.4,311.8,0.40,-0.4,10.9,"12:00:24",1
"19/03/23","12:20",0.0,10.1,49.0,1010.4,348.9,2.3,8.2,336.3,0.50,-0.1,11.0,"12:15:28",1
"19/03/23","12:30",0.0,9.0,47.2,1010.2,345.2,2.6,6.5,332.1,0.22,-1.6,11.0,"12:25:44",1
"19/03/23","12:40",0.0,10.0,49.8,1009.7,338.6,3.6,6.8,330.1,0.43,0.0,11.1,"12:31:36",1
"19/03/23","12:50",0.0,8.9,50.0,1010.0,352.9,3.6,7.3,327.8,0.29,-0.9,11.2,"12:40:32",1
"19/03/23","13:00",0.0,8.9,49.5,1009.7,345.7,2.8,6.3,12.8,0.24,-1.0,11.3,"12:50:08",1
"19/03/23","13:10",0.0,9.2,47.2,1009.0,319.8,3.4,5.1,307.0,0.30,-1.4,11.4,"13:06:56",1
"19/03/23","13:20",0.0,8.8,48.3,1009.0,320.5,4.2,10.3,324.0,0.23,-1.5,11.6,"13:11:20",1
"19/03/23","13:30",0.0,8.7,47.0,1009.5,356.3,3.0,7.3,9.2,0.23,-1.9,11.5,"13:25:36",1
"19/03/23","13:40",0.0,8.9,45.6,1009.0,339.4,2.7,6.0,17.2,0.27,-2.2,11.4,"13:38:00",1
"19/03/23","13:50",0.0,9.1,49.5,1009.3,349.0,3.1,6.2,333.3,0.25,-0.9,11.5,"13:47:44",1
"19/03/23","14:00",0.0,8.8,49.7,1009.0,326.4,3.5,7.7,339.1,0.21,-1.1,11.4,"13:58:32",1
"19/03/23","14:10",0.0,9.2,48.3,1009.0,325.6,3.0,6.4,329.0,0.31,-1.1,11.6,"14:06:16",1
"19/03/23","14:20",0.0,9.9,48.4,1008.8,323.3,3.5,7.3,325.6,0.47,-0.4,11.5,"14:14:24",1
"19/03/23","14:30",0.0,9.0,51.7,1008.8,348.6,2.6,5.0,333.7,0.29,-0.4,11.7,"14:28:40",1
"19/03/23","14:40",0.0,8.7,51.2,1008.6,336.0,3.4,7.1,339.9,0.19,-0.8,11.7,"14:38:08",1
"19/03/23","14:50",0.0,8.2,48.7,1008.8,339.4,4.1,7.9,332.0,0.12,-1.9,11.7,"14:45:52",1
"19/03/23","15:00",0.0,9.1,49.2,1008.3,336.3,4.4,7.3,335.2,0.24,-0.9,11.7,"14:53:20",1
"19/03/23","15:10",0.0,9.0,50.1,1008.3,337.1,3.4,6.3,332.9,0.26,-0.8,11.8,"15:02:16",1
"19/03/23","15:20",0.0,8.7,50.5,1008.8,336.9,3.1,4.8,329.9,0.12,-1.0,11.6,"15:17:20",1
"19/03/23","15:30",0.0,9.1,48.0,1008.6,321.7,3.7,5.5,314.6,0.09,-1.3,11.6,"15:21:04",1
"19/03/23","15:40",0.0,9.2,49.0,1008.1,321.1,3.6,7.3,329.0,0.13,-0.9,11.7,"15:33:20",1
"19/03/23","15:50",0.0,9.0,47.7,1007.8,339.1,2.5,6.2,338.6,0.14,-1.5,11.8,"15:40:08",1
"19/03/23","16:00",0.0,8.9,45.5,1008.1,326.1,4.4,8.0,314.2,0.12,-2.2,11.6,"15:53:44",1
"19/03/23","16:10",0.0,8.7,43.6,1008.1,331.5,4.7,10.4,320.2,0.09,-2.9,11.6,"16:09:12",1
"19/03/23","16:20",0.0,8.8,42.8,1008.1,317.5,4.4,6.6,304.4,0.12,-3.1,11.5,"16:12:56",1
"19/03/23","16:30",0.0,9.1,43.1,1008.3,326.3,3.0,5.1,334.7,0.09,-2.7,11.3,"16:20:40",1
"19/03/23","16:40",0.0,8.5,44.9,1008.6,331.3,4.1,7.7,343.1,0.05,-2.7,11.6,"16:32:32",1
"19/03/23","16:50",0.0,8.3,43.6,1008.3,331.9,4.0,6.8,342.7,0.05,-3.3,11.3,"16:49:52",1
"19/03/23","17:00",0.0,8.2,43.6,1008.3,323.6,4.6,10.5,346.2,0.06,-3.4,11.4,"16:50:48",1
"19/03/23","17:10",0.0,7.8,42.2,1008.8,331.3,5.1,8.0,334.8,0.04,-4.2,11.1,"17:08:56",1
"19/03/23","17:20",0.0,7.8,44.7,1008.8,332.7,4.2,8.7,324.9,0.02,-3.4,11.2,"17:10:48",1
"19/03/23","17:30",0.0,7.7,44.8,1008.6,324.1,3.2,5.6,301.7,0.02,-3.5,11.2,"17:28:56",1
"19/03/23","17:40",0.0,7.6,44.6,1008.6,326.3,3.7,6.7,303.8,0.01,-3.6,11.1,"17:32:56",1
"19/03/23","17:50",0.0,7.6,45.4,1008.8,325.0,3.1,5.6,333.1,0.00,-3.4,10.8,"17:46:32",1
"19/03/23","18:00",0.0,7.5,45.1,1009.0,306.6,3.7,6.3,326.7,0.00,-3.6,11.0,"17:53:20",1
"19/03/23","18:10",0.0,7.3,45.5,1008.8,327.1,3.5,7.4,333.9,0.00,-3.7,10.9,"18:00:02",1
"19/03/23","18:20",0.0,7.2,44.2,1009.0,333.4,4.7,9.4,333.7,0.00,-4.1,10.8,"18:16:16",1
"19/03/23","18:30",0.0,7.1,44.7,1009.0,343.8,3.6,6.2,330.5,0.00,-4.1,10.7,"18:20:32",1
"19/03/23","18:40",0.0,6.8,46.6,1009.0,332.6,3.4,7.3,316.6,0.00,-3.8,10.8,"18:30:24",1
"19/03/23","18:50",0.0,6.4,50.4,1009.5,327.0,6.1,10.1,333.6,0.00,-3.1,10.7,"18:48:16",1
"19/03/23","19:00",0.0,6.1,53.5,1009.0,319.8,4.1,8.2,321.0,0.00,-2.6,10.4,"18:50:40",1
"19/03/23","19:10",0.0,6.0,55.1,1009.5,327.4,3.5,5.6,313.1,0.00,-2.3,10.5,"19:07:20",1
"19/03/23","19:20",0.0,5.8,56.3,1008.8,327.9,3.0,6.2,334.5,0.00,-2.2,10.5,"19:17:36",1
"19/03/23","19:30",0.0,5.7,57.2,1009.3,337.4,3.0,5.8,327.1,0.00,-2.1,10.3,"19:24:08",1
"19/03/23","19:40",0.0,5.5,58.1,1009.0,341.8,2.1,3.6,351.4,0.00,-2.0,10.2,"19:33:20",1
"19/03/23","19:50",0.0,5.2,59.0,1009.0,336.5,2.0,4.0,328.1,0.00,-2.1,10.1,"19:48:56",1
"19/03/23","20:00",0.0,5.0,60.9,1009.3,327.8,1.8,3.4,319.2,0.00,-1.9,9.9,"19:56:16",1
"19/03/23","20:10",0.0,4.4,62.9,1008.8,311.8,1.8,2.5,317.4,0.00,-2.0,10.0,"20:03:36",1
"19/03/23","20:20",0.0,4.1,64.8,1009.0,309.8,1.7,2.7,322.8,0.00,-1.9,9.8,"20:15:04",1
"19/03/23","20:30",0.0,3.7,67.0,1009.5,316.6,1.8,2.9,322.9,0.00,-1.8,9.7,"20:28:56",1
"19/03/23","20:40",0.0,3.4,69.8,1009.0,327.1,2.0,2.7,322.9,0.00,-1.5,9.8,"20:32:32",1
"19/03/23","20:50",0.0,3.0,71.2,1009.3,321.3,1.8,2.6,323.0,0.00,-1.7,9.8,"20:46:48",1
"19/03/23","21:00",0.0,2.7,73.0,1008.8,315.0,2.1,2.7,322.0,0.00,-1.6,9.4,"20:54:56",1
"19/03/23","21:10",0.0,2.5,73.4,1009.0,323.7,2.2,2.8,327.7,0.00,-1.7,9.5,"21:04:40",1
"19/03/23","21:20",0.0,2.1,75.2,1008.8,307.2,2.1,2.6,309.6,0.00,-1.8,9.5,"21:13:44",1
"19/03/23","21:30",0.0,1.9,76.6,1008.8,315.0,2.0,2.6,320.0,0.00,-1.7,9.3,"21:25:12",1
"19/03/23","21:40",0.0,1.8,77.7,1009.0,308.2,1.6,2.2,323.6,0.00,-1.6,9.1,"21:32:08",1
"19/03/23","21:50",0.0,1.6,78.4,1008.8,306.3,1.6,2.9,323.0,0.00,-1.7,9.2,"21:42:40",1
"19/03/23","22:00",0.0,1.8,79.5,1009.3,320.9,2.6,4.1,312.8,0.00,-1.3,9.2,"21:59:36",1
"19/03/23","22:10",0.0,2.0,79.2,1009.0,316.7,3.0,5.5,314.6,0.00,-1.2,8.8,"22:05:36",1
"19/03/23","22:20",0.0,2.1,79.1,1009.3,317.0,3.1,4.8,323.6,0.00,-1.1,8.8,"22:13:12",1
"19/03/23","22:30",0.0,2.2,78.8,1009.3,320.1,3.4,5.1,326.0,0.00,-1.1,8.8,"22:22:26",1
"19/03/23","22:40",0.0,2.1,79.2,1009.5,326.6,4.0,5.1,315.0,0.00,-1.1,8.8,"22:31:32",1
"19/03/23","22:50",0.0,2.0,78.6,1009.5,308.5,3.0,5.2,319.2,0.00,-1.3,8.8,"22:40:12",1
"19/03/23","23:00",0.0,1.7,79.5,1009.7,320.9,2.6,4.1,313.7,0.00,-1.4,8.6,"22:59:12",1
"19/03/23","23:10",0.0,1.6,79.5,1009.7,313.3,2.8,4.3,322.8,0.00,-1.5,8.6,"23:01:28",1
"19/03/23","23:20",0.0,1.3,80.6,1009.7,319.1,2.7,4.0,326.4,0.00,-1.6,8.5,"23:12:16",1
"19/03/23","23:30",0.0,1.3,81.8,1010.0,320.2,2.5,3.6,334.1,0.00,-1.4,8.3,"23:27:20",1
"19/03/23","23:40",0.0,1.4,82.3,1010.0,321.0,3.0,4.8,332.1,0.00,-1.2,8.5,"23:34:32",1
"19/03/23","23:50",0.0,1.3,82.4,1009.3,324.0,2.8,4.1,332.3,0.00,-1.3,8.3,"23:41:36",1
"19/03/23","24:00",0.0,1.3,82.6,1009.0,325.9,3.0,4.3,319.6,0.00,-1.3,8.5,"23:52:42",1
